• In Schweiz
  • Länderverzeichnis
  • Für 7 Tage
  • Wassertemperatur
  • Satellitenkarten
  • Wetterkarte
  • Widgets
  • user-avatar
    Anmelden

    Stündliche Wetter Bern

    Heute, 16 August, Donnerstag

    Zeit Temperatur Niederschläge Wind Luftdruck Luftfeuchtigkeit
    00:00 +18°C° 0 mm 1 m/S 717 mmHg 86%
    01:00 +16°C° 0 mm 1 m/S 717 mmHg 87%
    02:00 +16°C° 0 mm 1 m/S 716 mmHg 88%
    03:00 +15°C° 0 mm 1 m/S 716 mmHg 89%
    04:00 +16°C° 0 mm 1 m/S 716 mmHg 86%
    05:00 +18°C° 0 mm 1 m/S 716 mmHg 84%
    06:00 +19°C° 0 mm 1 m/S 717 mmHg 75%
    07:00 +22°C° 0 mm 1 m/S 717 mmHg 67%
    08:00 +24°C° 0 mm 1 m/S 717 mmHg 59%
    09:00 +26°C° 0 mm 1 m/S 717 mmHg 51%
    10:00 +28°C° 0 mm 1 m/S 717 mmHg 47%
    11:00 +29°C° 0 mm 1 m/S 716 mmHg 43%
    12:00 +30°C° 0 mm 1 m/S 716 mmHg 39%
    13:00 +30°C° 0 mm 1 m/S 716 mmHg 40%
    14:00 +30°C° 0 mm 1 m/S 716 mmHg 40%
    15:00 +30°C° 0 mm 1 m/S 715 mmHg 41%
    16:00 +28°C° 0 mm 1 m/S 715 mmHg 49%
    17:00 +26°C° 0 mm 1 m/S 715 mmHg 58%
    18:00 +22°C° 0 mm 0 m/S 715 mmHg 67%
    19:00 +22°C° 0 mm 1 m/S 715 mmHg 69%
    20:00 +21°C° 0 mm 1 m/S 715 mmHg 71%
    21:00 +20°C° 0 mm 1 m/S 715 mmHg 73%
    22:00 +19°C° 0 mm 1 m/S 715 mmHg 74%
    23:00 +19°C° 0 mm 1 m/S 715 mmHg 74%

    Morgen, 17 August, Freitag

    Zeit Temperatur Niederschläge Wind Luftdruck Luftfeuchtigkeit
    00:00 +18°C° 0 mm 1 m/S 715 mmHg 75%
    01:00 +18°C° 0 mm 1 m/S 714 mmHg 75%
    02:00 +18°C° 0 mm 1 m/S 714 mmHg 75%
    03:00 +18°C° 0 mm 1 m/S 714 mmHg 74%
    04:00 +19°C° 0 mm 1 m/S 714 mmHg 74%
    05:00 +19°C° 0 mm 1 m/S 715 mmHg 74%
    06:00 +20°C° 0 mm 1 m/S 715 mmHg 73%
    07:00 +22°C° 0 mm 1 m/S 715 mmHg 66%
    08:00 +24°C° 0 mm 1 m/S 716 mmHg 59%
    09:00 +27°C° 0 mm 1 m/S 716 mmHg 52%
    10:00 +27°C° 0,3 mm 2 m/S 716 mmHg 54%
    11:00 +27°C° 0,3 mm 2 m/S 716 mmHg 57%
    12:00 +27°C° 0,3 mm 2 m/S 716 mmHg 59%
    13:00 +26°C° 0,7 mm 2 m/S 716 mmHg 62%
    14:00 +26°C° 0,7 mm 2 m/S 716 mmHg 65%
    15:00 +25°C° 0,7 mm 2 m/S 716 mmHg 68%
    16:00 +24°C° 0,8 mm 2 m/S 716 mmHg 75%
    17:00 +23°C° 0,8 mm 2 m/S 716 mmHg 82%
    18:00 +21°C° 0,8 mm 1 m/S 717 mmHg 89%
    19:00 +20°C° 0,4 mm 1 m/S 717 mmHg 91%
    20:00 +20°C° 0,4 mm 1 m/S 717 mmHg 93%
    21:00 +19°C° 0,4 mm 1 m/S 717 mmHg 95%
    22:00 +18°C° 0,1 mm 1 m/S 718 mmHg 95%
    23:00 +18°C° 0,1 mm 1 m/S 718 mmHg 96%

    übermorgen, 18 August, Samstag

    Zeit Temperatur Niederschläge Wind Luftdruck Luftfeuchtigkeit
    00:00 +18°C° 0,1 mm 1 m/S 718 mmHg 96%
    01:00 +18°C° 0 mm 1 m/S 718 mmHg 96%
    02:00 +16°C° 0 mm 0 m/S 718 mmHg 97%
    03:00 +16°C° 0 mm 0 m/S 718 mmHg 97%
    04:00 +18°C° 0,1 mm 1 m/S 718 mmHg 96%
    05:00 +18°C° 0,1 mm 1 m/S 718 mmHg 96%
    06:00 +19°C° 0,1 mm 1 m/S 718 mmHg 96%
    07:00 +20°C° 0,1 mm 1 m/S 719 mmHg 91%
    08:00 +21°C° 0,1 mm 1 m/S 719 mmHg 87%
    09:00 +21°C° 0,1 mm 2 m/S 719 mmHg 82%
    10:00 +21°C° 0,1 mm 2 m/S 719 mmHg 79%
    11:00 +23°C° 0,1 mm 2 m/S 719 mmHg 75%
    12:00 +24°C° 0,1 mm 2 m/S 719 mmHg 72%
    13:00 +24°C° 0,2 mm 2 m/S 718 mmHg 71%
    14:00 +24°C° 0,2 mm 2 m/S 718 mmHg 71%
    15:00 +24°C° 0,2 mm 2 m/S 718 mmHg 71%
    16:00 +23°C° 0,3 mm 2 m/S 718 mmHg 76%
    17:00 +21°C° 0,3 mm 2 m/S 718 mmHg 82%
    18:00 +21°C° 0,3 mm 1 m/S 719 mmHg 87%
    19:00 +21°C° 0,1 mm 1 m/S 719 mmHg 89%
    20:00 +20°C° 0,1 mm 1 m/S 719 mmHg 90%
    21:00 +19°C° 0,1 mm 1 m/S 719 mmHg 92%
    22:00 +19°C° 0 mm 1 m/S 719 mmHg 93%
    23:00 +18°C° 0 mm 1 m/S 719 mmHg 94%

    19 August, Sonntag

    Zeit Temperatur Niederschläge Wind Luftdruck Luftfeuchtigkeit
    00:00 +18°C° 0 mm 1 m/S 719 mmHg 95%
    01:00 +16°C° 0 mm 1 m/S 719 mmHg 95%
    02:00 +16°C° 0 mm 1 m/S 719 mmHg 95%
    03:00 +16°C° 0 mm 1 m/S 719 mmHg 95%
    04:00 +16°C° 0 mm 1 m/S 719 mmHg 93%
    05:00 +18°C° 0 mm 1 m/S 719 mmHg 92%
    06:00 +19°C° 0 mm 1 m/S 719 mmHg 91%
    07:00 +20°C° 0 mm 1 m/S 719 mmHg 84%
    08:00 +21°C° 0 mm 2 m/S 720 mmHg 77%
    09:00 +24°C° 0 mm 2 m/S 720 mmHg 70%
    10:00 +25°C° 0,1 mm 2 m/S 720 mmHg 66%
    11:00 +26°C° 0,1 mm 2 m/S 720 mmHg 62%
    12:00 +27°C° 0,1 mm 2 m/S 719 mmHg 58%
    13:00 +27°C° 0,2 mm 2 m/S 719 mmHg 58%
    14:00 +28°C° 0,2 mm 2 m/S 719 mmHg 58%
    15:00 +28°C° 0,2 mm 2 m/S 719 mmHg 58%
    16:00 +26°C° 0,1 mm 2 m/S 719 mmHg 65%
    17:00 +25°C° 0,1 mm 1 m/S 719 mmHg 72%
    18:00 +24°C° 0,1 mm 1 m/S 719 mmHg 79%
    19:00 +22°C° 0 mm 1 m/S 719 mmHg 82%
    20:00 +21°C° 0 mm 1 m/S 719 mmHg 86%
    21:00 +19°C° 0 mm 1 m/S 719 mmHg 90%
    22:00 +17°C° 0 mm 0 m/S 719 mmHg 90%
    23:00 +17°C° 0 mm 0 m/S 719 mmHg 91%

    20 August, Montag

    Zeit Temperatur Niederschläge Wind Luftdruck Luftfeuchtigkeit
    00:00 +16°C° 0 mm 0 m/S 719 mmHg 91%
    01:00 +16°C° 0 mm 0 m/S 719 mmHg 91%
    02:00 +16°C° 0 mm 0 m/S 719 mmHg 91%
    03:00 +15°C° 0 mm 0 m/S 718 mmHg 92%
    04:00 +16°C° 0 mm 0 m/S 719 mmHg 90%
    05:00 +17°C° 0 mm 0 m/S 719 mmHg 88%
    06:00 +18°C° 0 mm 0 m/S 719 mmHg 86%
    07:00 +22°C° 0 mm 1 m/S 719 mmHg 77%
    08:00 +24°C° 0 mm 1 m/S 719 mmHg 68%
    09:00 +26°C° 0 mm 1 m/S 720 mmHg 59%
    10:00 +27°C° 0 mm 1 m/S 719 mmHg 55%
    11:00 +28°C° 0 mm 2 m/S 719 mmHg 51%
    12:00 +29°C° 0 mm 2 m/S 719 mmHg 47%
    13:00 +29°C° 0 mm 2 m/S 719 mmHg 47%
    14:00 +29°C° 0 mm 2 m/S 719 mmHg 47%
    15:00 +29°C° 0 mm 2 m/S 719 mmHg 48%
    16:00 +27°C° 0 mm 2 m/S 718 mmHg 56%
    17:00 +26°C° 0 mm 1 m/S 718 mmHg 64%
    18:00 +24°C° 0 mm 1 m/S 718 mmHg 72%
    19:00 +22°C° 0 mm 1 m/S 718 mmHg 76%
    20:00 +21°C° 0 mm 1 m/S 718 mmHg 80%
    21:00 +20°C° 0 mm 1 m/S 719 mmHg 84%
    22:00 +19°C° 0 mm 1 m/S 718 mmHg 85%
    23:00 +19°C° 0 mm 1 m/S 718 mmHg 87%

    21 August, Dienstag

    Zeit Temperatur Niederschläge Wind Luftdruck Luftfeuchtigkeit
    00:00 +18°C° 0 mm 1 m/S 718 mmHg 88%
    01:00 +18°C° 0 mm 1 m/S 718 mmHg 89%
    02:00 +18°C° 0 mm 1 m/S 718 mmHg 89%
    03:00 +16°C° 0 mm 1 m/S 718 mmHg 90%
    04:00 +16°C° 0 mm 0 m/S 718 mmHg 87%
    05:00 +17°C° 0 mm 0 m/S 718 mmHg 85%
    06:00 +18°C° 0 mm 0 m/S 718 mmHg 82%
    07:00 +20°C° 0 mm 0 m/S 718 mmHg 73%
    08:00 +25°C° 0 mm 1 m/S 718 mmHg 64%
    09:00 +27°C° 0 mm 1 m/S 719 mmHg 55%
    10:00 +28°C° 0 mm 1 m/S 718 mmHg 52%
    11:00 +29°C° 0 mm 1 m/S 718 mmHg 48%
    12:00 +30°C° 0 mm 1 m/S 718 mmHg 45%
    13:00 +30°C° 0,1 mm 2 m/S 718 mmHg 46%
    14:00 +30°C° 0,1 mm 2 m/S 717 mmHg 46%
    15:00 +30°C° 0,1 mm 2 m/S 717 mmHg 47%
    16:00 +28°C° 0,1 mm 1 m/S 717 mmHg 56%
    17:00 +26°C° 0,1 mm 1 m/S 717 mmHg 64%
    18:00 +24°C° 0,1 mm 1 m/S 717 mmHg 73%
    19:00 +23°C° 0,1 mm 1 m/S 717 mmHg 76%
    20:00 +22°C° 0,1 mm 1 m/S 717 mmHg 80%
    21:00 +20°C° 0,1 mm 1 m/S 717 mmHg 84%
    22:00 +20°C° 0 mm 1 m/S 717 mmHg 85%
    23:00 +19°C° 0 mm 1 m/S 717 mmHg 86%
    Mehr zeigen